McAlester, OK

3:51 AM CDT on April 26, 2017 (GMT -0500)
McAlester Regional

Weather History for KMLC - January, 2013

Change the Weather History Date:

Saturday, January 26, 2013

  Actual Average Record
Temperature  
Mean Temperature 41 °F -  
Max Temperature 52 °F 50 °F 71 °F (1970)
Min Temperature 30 °F 28 °F 13 °F (1963)
Degree Days  
Heating Degree Days 24    
Moisture  
Dew Point 37 °F    
Average Humidity 77    
Maximum Humidity 93    
Minimum Humidity 54    
Precipitation  
Precipitation 0.00 in - - ()
Sea Level Pressure  
Sea Level Pressure 30.19 in    
Wind  
Wind Speed 3 mph (ESE)    
Max Wind Speed 6 mph    
Max Gust Speed 16 mph    
Visibility 8 miles    
Events      
Averages and records for this station are not official NWS values.
T = Trace of Precipitation, MM = Missing Value Source: NWS Daily Summary

Daily Weather History Graph

Daily Weather History Graph

Search for Another Location

Airport or City:

Trip Planner

Search our weather history database for the weather conditions in past years. The results will help you decide how hot, cold, wet, or windy it might be!

Date:

Astronomy

Jan. 26, 2013 Rise Set
Actual Time 7:25 AM CST 5:46 PM CST
Civil Twilight 6:58 AM CST 6:13 PM CST
Nautical Twilight 6:28 AM CST 6:43 PM CST
Astronomical Twilight 5:58 AM CST 7:13 PM CST
Moon 5:40 PM CST 6:45 AM CST
Length of Visible Light 11h 14m
Length of Day
10h 20m
Full, 100% of the Moon is Illuminated
Jan 26
Full
Jan 26
Full
Feb 3
Last Quarter
Feb 10
New
Feb 17
First Quarter

Hourly Weather History & Observations

Time (CST) Temp. Windchill Dew Point Humidity Pressure Visibility Wind Dir Wind Speed Gust Speed Precip Events Conditions
12:53 AM 39.0 °F 36.8 °F 34.0 °F 82% 30.22 in 7.0 mi NE 3.5 mph - N/A   Scattered Clouds
1:53 AM 34.0 °F - 30.9 °F 89% 30.25 in 4.0 mi Calm Calm - N/A   Partly Cloudy
2:53 AM 32.0 °F - 28.9 °F 88% 30.23 in 4.0 mi Calm Calm - N/A   Partly Cloudy
3:53 AM 30.9 °F - 28.9 °F 92% 30.22 in 3.0 mi Calm Calm - N/A   Partly Cloudy
4:53 AM 30.9 °F - 28.9 °F 92% 30.21 in 4.0 mi Calm Calm - N/A   Partly Cloudy
5:53 AM 36.0 °F - 34.0 °F 93% 30.20 in 3.0 mi Calm Calm - N/A   Overcast
6:53 AM 37.9 °F - 35.1 °F 89% 30.22 in 4.0 mi Calm Calm - N/A   Overcast
7:53 AM 39.0 °F 35.7 °F 35.1 °F 86% 30.23 in 3.0 mi NE 4.6 mph - N/A   Overcast
8:53 AM 41.0 °F 39.0 °F 36.0 °F 82% 30.24 in 6.0 mi East 3.5 mph - N/A   Haze
9:53 AM 44.1 °F - 36.0 °F 73% 30.25 in 9.0 mi Calm Calm - N/A   Overcast
10:46 AM 46.4 °F 45.2 °F 37.4 °F 71% 30.25 in 8.0 mi NNE 3.5 mph - N/A   Overcast
10:53 AM 46.0 °F - 37.0 °F 71% 30.26 in 7.0 mi Calm Calm - N/A   Overcast
11:53 AM 48.9 °F - 37.0 °F 64% 30.23 in 10.0 mi Variable 3.5 mph - N/A   Overcast
12:53 PM 51.1 °F - 35.1 °F 54% 30.20 in 10.0 mi Variable 4.6 mph - N/A   Overcast
1:53 PM 52.0 °F - 36.0 °F 54% 30.18 in 10.0 mi Variable 3.5 mph - N/A   Overcast
2:53 PM 52.0 °F - 37.0 °F 57% 30.16 in 10.0 mi ESE 5.8 mph - N/A   Overcast
3:53 PM 50.0 °F - 37.9 °F 63% 30.16 in 10.0 mi ESE 5.8 mph - N/A   Overcast
4:53 PM 50.0 °F - 37.9 °F 63% 30.17 in 10.0 mi SE 5.8 mph - N/A   Overcast
5:53 PM 48.9 °F - 37.9 °F 66% 30.17 in 10.0 mi Calm Calm - N/A   Overcast
6:53 PM 48.9 °F - 39.9 °F 71% 30.17 in 10.0 mi SSE 3.5 mph - N/A   Overcast
7:53 PM 48.0 °F - 39.9 °F 74% 30.16 in 10.0 mi SSE 3.5 mph - N/A   Overcast
8:33 PM 48.2 °F - 41.0 °F 76% 30.16 in 10.0 mi Variable 5.8 mph 16.1 mph N/A   Overcast
8:53 PM 46.9 °F - 41.0 °F 80% 30.15 in 10.0 mi SE 5.8 mph - N/A   Overcast
9:53 PM 46.0 °F 43.1 °F 41.0 °F 83% 30.15 in 10.0 mi SE 5.8 mph - N/A   Overcast
10:26 PM 46.4 °F 43.5 °F 41.0 °F 81% 30.14 in 10.0 mi Variable 5.8 mph - N/A   Overcast
10:53 PM 46.0 °F 43.1 °F 42.1 °F 86% 30.13 in 10.0 mi SE 5.8 mph - N/A   Overcast
11:53 PM 46.0 °F 44.8 °F 42.1 °F 86% 30.11 in 10.0 mi ESE 3.5 mph - N/A   Overcast